Orbital Elements at Epoch 2459200.5 (2020-Dec-17.0) TDB
Reference: JPL 18 (heliocentric ecliptic J2000)
Element | Value | Uncertainty (1-sigma) | Units |
e | .2138588273419104 | 6.1333e-08 | |
a | 2.717509302571521 | 1.6331e-08 | au |
q | 2.136345949832843 | 1.6486e-07 | au |
i | 3.576202927209319 | 6.8035e-06 | deg |
node | 34.24836922744876 | 7.096e-05 | deg |
peri | 301.0732590897929 | 7.2225e-05 | deg |
M | 79.7492596355801 | 1.4082e-05 | deg |
tp | 2458838.024093060382 (2019-Dec-20.52409306) | 6.225e-05 | TDB |
period | 1636.270068142974 4.48 | 1.475e-05 4.038e-08 | d yr |
n | .2200125804468018 | 1.9833e-09 | deg/d |
Q | 3.298672655310199 | 1.9824e-08 | au |
|
| | Orbit Determination Parameters
Additional Information
|